Location: Unspecified
(0.0000°N, 0.0000°E)
Time: 10:35:38
(UTC+00:00)

Envisat - Pass Details

Date: 21 April 2019
Orbit: 764 x 766 km, 98.2° (Epoch: 24 May)

Event Time Altitude Azimuth Distance (km) Brightness Sun altitude
Rises 19:51:44 0° 196° (SSW) 3,231 6.3 -27.6°
Reaches altitude 10° 19:54:37 10° 212° (SSW) 2,303 5.7 -28.3°
Maximum altitude 19:58:12 20° 257° (WSW) 1,735 5.4 -29.2°
Drops below altitude 10° 20:01:46 10° 303° (WNW) 2,296 6.3 -30.0°
Sets 20:04:40 0° 320° (NW) 3,219 7.0 -30.7°
